Flag for Germany Weather past 2 weeks in Heide, Schleswig-Holstein, Germany

Now
30 °F

Chilly.


Feels Like: 30 °F
Forecast: 26 / 35 °F
Wind: No wind

Location: Hohn

Current Time: Dec 26, 2014 at 12:41:58 AM

Latest Report: Dec 25, 2014 at 11:20 PM


Visibility: N/A

Pressure: 30.27 "Hg

Humidity: 86%

Dew point: 27 °F

Location of HeideLocation

Historic Weather in Heide — Graph

°F

Heide temperature yesterday

Maximum temperature yesterday: 43 °F (at 2:20 AM)
Minimum temperature yesterday: 30 °F (at 11:20 PM)
Average temperature yesterday: 38 °F

Past Weeks' High & Low Weather Summary

 TemperatureHumidityPressure
High52 °F (Dec 18, 4:20 PM)100% (Dec 12, 9:20 AM)30.27 "Hg (Dec 12, 9:20 AM)
Low30 °F (Dec 25, 11:20 PM)70% (Dec 12, 11:20 PM)29.06 "Hg (Dec 12, 1:20 PM)
Average42 °F90%29.68 "Hg
* Reported Dec 10 11:20 PM — Dec 25 11:20 PM, Heide, Weather by CustomWeather, © 2014

Note: Actual official high and low records may vary slightly from our data, if they occured in-between our weather recording intervals... More about our weather records

Advertising

Heide weather history for previous 24 hours

 ConditionsComfort  
Time TempWeatherWind HumidityBarometerVisibility
11:20 PM
Dec 25
30 °FChilly.No wind86%30.27 "HgN/A
10:20 PM32 °FChilly.No wind80%30.27 "HgN/A
9:20 PM32 °FChilly.8 mph87%30.24 "HgN/A
8:20 PM32 °FChilly.10 mph87%30.21 "HgN/A
7:20 PM34 °FChilly.9 mph87%30.18 "HgN/A
6:20 PM34 °FChilly.7 mph87%30.15 "HgN/A
5:20 PM34 °FChilly.13 mph87%30.12 "HgN/A
4:20 PM34 °FChilly.12 mph93%30.07 "HgN/A
3:20 PM34 °FChilly.13 mph93%30.04 "HgN/A
2:20 PM36 °FChilly.16 mph93%29.98 "HgN/A
1:20 PM37 °FChilly.13 mph93%29.89 "HgN/A
12:20 PM41 °FQuite cool.10 mph93%29.86 "HgN/A
11:20 AM41 °FQuite cool.16 mph93%29.83 "HgN/A
10:20 AM41 °FQuite cool.17 mph87%29.83 "HgN/A
9:20 AM41 °FQuite cool.21 mph87%29.80 "HgN/A
8:20 AM43 °FQuite cool.24 mph87%29.77 "HgN/A
7:20 AM43 °FQuite cool.18 mph87%29.74 "HgN/A
6:20 AM43 °FQuite cool.16 mph87%29.74 "HgN/A
5:20 AM43 °FQuite cool.10 mph87%29.74 "HgN/A
4:20 AM43 °FQuite cool.12 mph87%29.77 "HgN/A
3:20 AM41 °FQuite cool.10 mph87%29.80 "HgN/A
2:20 AM43 °FQuite cool.15 mph81%29.83 "HgN/A
1:20 AM41 °FQuite cool.8 mph93%29.83 "HgN/A
12:20 AM41 °FQuite cool.18 mph87%29.83 "HgN/A
Weather by CustomWeather, © 2014

See weather overviewHow to use our weather pages